| time (UTC) | temp F | wind direction | speed MPH | gust MPH | rain 1hr in | rain 24hr in | rain mn in | humidity % | barometer mb |
| 20260906152007 | 73 | 103 | 2.0 | 5.0 | 0.00 | 0.00 | 0.00 | 67 | 1021.4 |
| 20260906151007 | 73 | 118 | 2.0 | 7.0 | 0.00 | 0.00 | 0.00 | 68 | 1021.3 |
| 20260906150007 | 73 | 133 | 1.0 | 5.0 | 0.00 | 0.00 | 0.00 | 69 | 1021.2 |
| 20260906145007 | 72 | 114 | 1.0 | 5.0 | 0.00 | 0.00 | 0.00 | 69 | 1021.3 |
| 20260906144007 | 72 | 121 | 1.0 | 5.0 | 0.00 | 0.00 | 0.00 | 71 | 1021.3 |
| 20260906143007 | 72 | 108 | 1.0 | 3.0 | 0.00 | 0.00 | 0.00 | 72 | 1021.1 |
| 20260906142007 | 71 | 122 | 1.0 | 5.0 | 0.00 | 0.00 | 0.00 | 74 | 1021.2 |
| 20260906141007 | 70 | 134 | 1.0 | 6.0 | 0.00 | 0.00 | 0.00 | 75 | 1021.3 |
| 20260906140007 | 70 | 138 | 1.0 | 4.0 | 0.00 | 0.00 | 0.00 | 77 | 1021.1 |
| 20260906135007 | 69 | 134 | 1.0 | 5.0 | 0.00 | 0.00 | 0.00 | 79 | 1021.0 |
| 20260906134007 | 68 | 134 | 1.0 | 4.0 | 0.00 | 0.00 | 0.00 | 81 | 1021.1 |
| 20260906133007 | 67 | 115 | 1.0 | 3.0 | 0.00 | 0.00 | 0.00 | 83 | 1021.0 |
| 20260906132007 | 67 | 114 | 1.0 | 4.0 | 0.00 | 0.00 | 0.00 | 83 | 1021.1 |
| 20260906131007 | 66 | 118 | 0.0 | 3.0 | 0.00 | 0.00 | 0.00 | 83 | 1021.0 |
| 20260906130007 | 65 | 111 | 1.0 | 4.0 | 0.00 | 0.00 | 0.00 | 83 | 1020.9 |
| 20260906125007 | 64 | 102 | 0.0 | 1.0 | 0.00 | 0.00 | 0.00 | 83 | 1020.7 |
| 20260906124007 | 64 | 102 | 0.0 | 1.0 | 0.00 | 0.00 | 0.00 | 83 | 1020.6 |
| 20260906123007 | 64 | 102 | 0.0 | 3.0 | 0.00 | 0.00 | 0.00 | 83 | 1020.4 |
| 20260906122007 | 64 | 102 | 0.0 | 2.0 | 0.00 | 0.00 | 0.00 | 83 | 1020.3 |
| 20260906121007 | 63 | 72 | 0.0 | 2.0 | 0.00 | 0.00 | 0.00 | 83 | 1020.1 |
| 20260906120007 | 63 | 44 | 0.0 | 1.0 | 0.00 | 0.00 | 0.00 | 83 | 1020.1 |
| 20260906115007 | 63 | 0 | 0.0 | 0.0 | 0.00 | 0.00 | 0.00 | 83 | 1020.0 |
| 20260906114007 | 63 | 42 | 0.0 | 2.0 | 0.00 | 0.00 | 0.00 | 83 | 1020.0 |
| 20260906113007 | 63 | 42 | 0.0 | 2.0 | 0.00 | 0.00 | 0.00 | 83 | 1019.8 |
| 20260906112007 | 63 | 43 | 0.0 | 1.0 | 0.00 | 0.00 | 0.00 | 83 | 1019.5 |
| 20260906111006 | 63 | 42 | 0.0 | 1.0 | 0.00 | 0.00 | 0.00 | 83 | 1019.5 |
| 20260906110007 | 63 | 42 | 0.0 | 2.0 | 0.00 | 0.00 | 0.00 | 83 | 1019.4 |
| 20260906105007 | 63 | 42 | 0.0 | 1.0 | 0.00 | 0.00 | 0.00 | 83 | 1019.3 |
| 20260906104007 | 63 | 43 | 0.0 | 1.0 | 0.00 | 0.00 | 0.00 | 83 | 1019.3 |
| 20260906103007 | 63 | 42 | 0.0 | 1.0 | 0.00 | 0.00 | 0.00 | 82 | 1019.3 |
| 20260906102007 | 63 | 42 | 0.0 | 1.0 | 0.00 | 0.00 | 0.00 | 82 | 1019.4 |
| 20260906101006 | 63 | 42 | 1.0 | 2.0 | 0.00 | 0.00 | 0.00 | 82 | 1019.4 |
| 20260906100007 | 63 | 38 | 2.0 | 3.0 | 0.00 | 0.00 | 0.00 | 83 | 1019.2 |
| 20260906095007 | 64 | 50 | 1.0 | 3.0 | 0.00 | 0.00 | 0.00 | 83 | 1019.2 |
| 20260906094007 | 64 | 42 | 1.0 | 4.0 | 0.00 | 0.00 | 0.00 | 83 | 1019.1 |
| 20260906093007 | 64 | 39 | 1.0 | 3.0 | 0.00 | 0.00 | 0.00 | 83 | 1019.2 |
| 20260906092007 | 64 | 29 | 1.0 | 3.0 | 0.00 | 0.00 | 0.00 | 82 | 1019.1 |
| 20260906091007 | 64 | 34 | 2.0 | 4.0 | 0.00 | 0.00 | 0.00 | 82 | 1019.0 |
| 20260906090007 | 64 | 29 | 2.0 | 4.0 | 0.00 | 0.00 | 0.00 | 82 | 1018.9 |
| 20260906085007 | 64 | 16 | 3.0 | 5.0 | 0.00 | 0.00 | 0.00 | 82 | 1018.9 |
| 20260906084007 | 64 | 22 | 2.0 | 5.0 | 0.00 | 0.00 | 0.00 | 82 | 1019.0 |
| 20260906083007 | 64 | 8 | 2.0 | 4.0 | 0.00 | 0.00 | 0.00 | 82 | 1019.1 |
| 20260906082007 | 64 | 12 | 2.0 | 4.0 | 0.00 | 0.00 | 0.00 | 82 | 1019.1 |
| 20260906081007 | 64 | 24 | 2.0 | 4.0 | 0.00 | 0.00 | 0.00 | 82 | 1019.0 |
| 20260906080007 | 64 | 19 | 2.0 | 5.0 | 0.00 | 0.00 | 0.00 | 82 | 1018.9 |
| 20260906075007 | 64 | 23 | 2.0 | 4.0 | 0.00 | 0.00 | 0.00 | 82 | 1018.8 |
| 20260906074007 | 64 | 18 | 1.0 | 2.0 | 0.00 | 0.00 | 0.00 | 82 | 1018.8 |
| 20260906073007 | 64 | 17 | 1.0 | 3.0 | 0.00 | 0.00 | 0.00 | 82 | 1018.7 |
| 20260906072007 | 64 | 15 | 2.0 | 4.0 | 0.00 | 0.00 | 0.00 | 82 | 1018.5 |
| 20260906071007 | 64 | 5 | 2.0 | 3.0 | 0.00 | 0.00 | 0.00 | 82 | 1018.4 |
| 20260906070007 | 64 | 349 | 1.0 | 3.0 | 0.00 | 0.00 | 0.00 | 82 | 1018.5 |
| 20260906065007 | 64 | 315 | 1.0 | 2.0 | 0.00 | 0.00 | 0.00 | 82 | 1018.6 |
| 20260906064007 | 64 | 321 | 0.0 | 3.0 | 0.00 | 0.00 | 0.00 | 82 | 1018.7 |
| 20260906063007 | 64 | 12 | 0.0 | 2.0 | 0.00 | 0.00 | 0.00 | 82 | 1018.6 |
| 20260906062007 | 64 | 12 | 0.0 | 1.0 | 0.00 | 0.00 | 0.00 | 82 | 1018.7 |
| 20260906061008 | 64 | 23 | 1.0 | 3.0 | 0.00 | 0.00 | 0.00 | 82 | 1018.5 |
| 20260906060008 | 64 | 25 | 2.0 | 5.0 | 0.00 | 0.00 | 0.00 | 82 | 1018.4 |
| 20260906055007 | 64 | 18 | 2.0 | 4.0 | 0.00 | 0.00 | 0.00 | 81 | 1018.3 |
| 20260906054007 | 64 | 12 | 2.0 | 4.0 | 0.00 | 0.00 | 0.00 | 81 | 1018.2 |
| 20260906053007 | 64 | 23 | 2.0 | 4.0 | 0.00 | 0.00 | 0.00 | 81 | 1018.3 |
| 20260906052007 | 64 | 24 | 2.0 | 3.0 | 0.00 | 0.00 | 0.00 | 81 | 1018.3 |
| 20260906051007 | 64 | 15 | 2.0 | 4.0 | 0.00 | 0.00 | 0.00 | 81 | 1018.2 |
| 20260906050013 | 64 | 18 | 1.0 | 5.0 | 0.00 | 0.00 | 0.00 | 81 | 1018.3 |
| 20260906045007 | 64 | 17 | 2.0 | 3.0 | 0.00 | 0.00 | 0.00 | 81 | 1018.3 |
| 20260906044008 | 65 | 22 | 2.0 | 5.0 | 0.00 | 0.00 | 0.00 | 81 | 1018.2 |
| 20260906043007 | 65 | 36 | 2.0 | 6.0 | 0.00 | 0.00 | 0.00 | 81 | 1018.2 |
| 20260906042007 | 65 | 30 | 2.0 | 5.0 | 0.00 | 0.00 | 0.00 | 81 | 1018.2 |
| 20260906041007 | 65 | 31 | 3.0 | 6.0 | 0.00 | 0.00 | 0.00 | 81 | 1018.1 |
| 20260906040008 | 65 | 25 | 3.0 | 7.0 | 0.00 | 0.00 | 0.00 | 81 | 1017.9 |
| 20260906035007 | 65 | 26 | 3.0 | 5.0 | 0.00 | 0.00 | 0.00 | 80 | 1018.0 |
| 20260906034007 | 65 | 39 | 3.0 | 6.0 | 0.00 | 0.00 | 0.00 | 80 | 1017.8 |
| 20260906033007 | 65 | 34 | 2.0 | 5.0 | 0.00 | 0.00 | 0.00 | 80 | 1017.9 |
| 20260906032007 | 65 | 33 | 2.0 | 6.0 | 0.00 | 0.00 | 0.00 | 80 | 1018.0 |
| 20260906031008 | 65 | 34 | 2.0 | 6.0 | 0.00 | 0.00 | 0.00 | 80 | 1018.0 |
| 20260906030007 | 65 | 32 | 2.0 | 4.0 | 0.00 | 0.00 | 0.00 | 80 | 1018.0 |
| 20260906025007 | 65 | 26 | 2.0 | 6.0 | 0.00 | 0.00 | 0.00 | 80 | 1018.1 |
| 20260906024007 | 65 | 33 | 3.0 | 7.0 | 0.00 | 0.00 | 0.00 | 80 | 1017.9 |
| 20260906023008 | 66 | 31 | 3.0 | 8.0 | 0.00 | 0.00 | 0.00 | 79 | 1017.8 |
| 20260906022007 | 66 | 35 | 3.0 | 7.0 | 0.00 | 0.00 | 0.00 | 79 | 1017.8 |
| 20260906021007 | 66 | 39 | 3.0 | 8.0 | 0.00 | 0.00 | 0.00 | 79 | 1017.8 |
| 20260906020007 | 66 | 31 | 3.0 | 8.0 | 0.00 | 0.00 | 0.00 | 79 | 1017.7 |
| 20260906015007 | 66 | 38 | 2.0 | 6.0 | 0.00 | 0.00 | 0.00 | 78 | 1017.6 |
| 20260906014007 | 66 | 37 | 2.0 | 4.0 | 0.00 | 0.00 | 0.00 | 78 | 1017.5 |
| 20260906013007 | 66 | 42 | 2.0 | 6.0 | 0.00 | 0.00 | 0.00 | 78 | 1017.5 |
| 20260906012007 | 66 | 30 | 1.0 | 4.0 | 0.00 | 0.00 | 0.00 | 78 | 1017.5 |
| 20260906011007 | 67 | 42 | 1.0 | 6.0 | 0.00 | 0.00 | 0.00 | 78 | 1017.6 |
| 20260906010007 | 68 | 57 | 1.0 | 3.0 | 0.00 | 0.00 | 0.00 | 78 | 1017.6 |
| 20260906005007 | 68 | 70 | 0.0 | 2.0 | 0.00 | 0.00 | 0.00 | 77 | 1017.6 |
| 20260906004007 | 68 | 71 | 0.0 | 2.0 | 0.00 | 0.00 | 0.00 | 77 | 1017.5 |
| 20260906003007 | 69 | 70 | 0.0 | 2.0 | 0.00 | 0.00 | 0.00 | 76 | 1017.6 |
| 20260906002007 | 69 | 0 | 0.0 | 0.0 | 0.00 | 0.00 | 0.00 | 76 | 1017.6 |
| 20260906001008 | 69 | 70 | 1.0 | 2.0 | 0.00 | 0.00 | 0.00 | 76 | 1017.6 |
| 20260906000008 | 70 | 56 | 1.0 | 3.0 | 0.00 | 0.00 | 0.00 | 75 | 1017.6 |
| 20260905235008 | 70 | 37 | 1.0 | 4.0 | 0.00 | 0.00 | 0.00 | 75 | 1017.6 |
| 20260905234007 | 70 | 37 | 1.0 | 5.0 | 0.00 | 0.00 | 0.00 | 75 | 1017.5 |
| 20260905233007 | 71 | 34 | 2.0 | 6.0 | 0.00 | 0.00 | 0.00 | 75 | 1017.6 |
| 20260905232007 | 71 | 44 | 2.0 | 7.0 | 0.00 | 0.00 | 0.00 | 75 | 1017.5 |
| 20260905231007 | 72 | 55 | 1.0 | 5.0 | 0.00 | 0.00 | 0.00 | 75 | 1017.6 |
| 20260905230007 | 72 | 54 | 2.0 | 7.0 | 0.00 | 0.00 | 0.00 | 76 | 1017.4 |
| 20260905225007 | 72 | 40 | 3.0 | 7.0 | 0.00 | 0.00 | 0.00 | 77 | 1017.4 |
| 20260905224008 | 71 | 47 | 2.0 | 7.0 | 0.00 | 0.00 | 0.00 | 78 | 1017.3 |
| 20260905223007 | 71 | 46 | 2.0 | 7.0 | 0.00 | 0.00 | 0.00 | 78 | 1017.3 |
| 20260905222007 | 71 | 33 | 3.0 | 9.0 | 0.00 | 0.00 | 0.00 | 79 | 1017.3 |
| 20260905221008 | 70 | 36 | 3.0 | 8.0 | 0.00 | 0.00 | 0.00 | 79 | 1017.2 |
| 20260905220007 | 70 | 32 | 2.0 | 8.0 | 0.00 | 0.00 | 0.00 | 80 | 1017.2 |
| 20260905215008 | 70 | 37 | 3.0 | 7.0 | 0.00 | 0.00 | 0.00 | 80 | 1017.3 |
| 20260905214007 | 70 | 37 | 2.0 | 6.0 | 0.00 | 0.00 | 0.00 | 80 | 1017.2 |
| 20260905213008 | 70 | 29 | 3.0 | 8.0 | 0.00 | 0.00 | 0.00 | 80 | 1017.2 |
| 20260905212008 | 70 | 36 | 3.0 | 10.0 | 0.00 | 0.00 | 0.00 | 80 | 1017.2 |
| 20260905211007 | 71 | 46 | 3.0 | 9.0 | 0.00 | 0.00 | 0.00 | 80 | 1017.3 |
| 20260905210007 | 71 | 41 | 2.0 | 6.0 | 0.00 | 0.00 | 0.00 | 79 | 1017.4 |
| 20260905205008 | 71 | 36 | 3.0 | 8.0 | 0.00 | 0.00 | 0.00 | 79 | 1017.3 |
| 20260905204008 | 71 | 36 | 2.0 | 8.0 | 0.00 | 0.00 | 0.00 | 79 | 1017.3 |
| 20260905203007 | 71 | 35 | 3.0 | 7.0 | 0.00 | 0.00 | 0.00 | 79 | 1017.2 |
| 20260905202007 | 72 | 32 | 2.0 | 7.0 | 0.00 | 0.00 | 0.00 | 80 | 1017.2 |
| 20260905201007 | 72 | 34 | 3.0 | 7.0 | 0.00 | 0.00 | 0.00 | 80 | 1017.3 |
| 20260905200007 | 72 | 46 | 2.0 | 9.0 | 0.00 | 0.00 | 0.00 | 80 | 1017.1 |
| 20260905195007 | 72 | 41 | 3.0 | 8.0 | 0.00 | 0.00 | 0.00 | 81 | 1017.1 |
| 20260905194007 | 71 | 39 | 3.0 | 7.0 | 0.00 | 0.00 | 0.00 | 81 | 1017.2 |
| 20260905193008 | 71 | 33 | 3.0 | 10.0 | 0.00 | 0.00 | 0.00 | 82 | 1017.3 |
| 20260905192007 | 71 | 37 | 3.0 | 8.0 | 0.00 | 0.00 | 0.00 | 82 | 1017.2 |
| 20260905191007 | 71 | 37 | 2.0 | 6.0 | 0.00 | 0.00 | 0.00 | 82 | 1017.3 |
| 20260905190008 | 70 | 34 | 3.0 | 7.0 | 0.00 | 0.00 | 0.00 | 82 | 1017.2 |
| 20260905185007 | 70 | 37 | 3.0 | 9.0 | 0.00 | 0.00 | 0.00 | 82 | 1017.3 |
| 20260905184007 | 70 | 35 | 3.0 | 9.0 | 0.00 | 0.00 | 0.00 | 82 | 1017.4 |
| 20260905183007 | 71 | 42 | 4.0 | 8.0 | 0.00 | 0.00 | 0.00 | 82 | 1017.4 |
| 20260905182007 | 71 | 43 | 4.0 | 8.0 | 0.00 | 0.00 | 0.00 | 82 | 1017.4 |
| 20260905181008 | 71 | 37 | 3.0 | 8.0 | 0.00 | 0.00 | 0.00 | 82 | 1017.3 |
| 20260905180008 | 71 | 35 | 3.0 | 10.0 | 0.00 | 0.00 | 0.00 | 81 | 1017.3 |
| 20260905175006 | 71 | 37 | 3.0 | 7.0 | 0.00 | 0.00 | 0.00 | 81 | 1017.3 |
| 20260905174007 | 71 | 41 | 3.0 | 8.0 | 0.00 | 0.00 | 0.00 | 82 | 1017.1 |
| 20260905173006 | 72 | 42 | 3.0 | 9.0 | 0.00 | 0.00 | 0.00 | 81 | 1017.2 |
| 20260905172007 | 72 | 31 | 3.0 | 8.0 | 0.00 | 0.00 | 0.00 | 81 | 1017.3 |
| 20260905171007 | 72 | 47 | 3.0 | 6.0 | 0.00 | 0.00 | 0.00 | 81 | 1017.2 |
| 20260905170006 | 72 | 35 | 3.0 | 8.0 | 0.00 | 0.00 | 0.00 | 81 | 1017.1 |
| 20260905165007 | 72 | 43 | 3.0 | 9.0 | 0.00 | 0.00 | 0.00 | 82 | 1017.1 |
| 20260905164007 | 72 | 40 | 4.0 | 10.0 | 0.00 | 0.00 | 0.00 | 81 | 1017.0 |
| 20260905163007 | 72 | 30 | 3.0 | 8.0 | 0.00 | 0.00 | 0.00 | 82 | 1017.2 |
| 20260905162008 | 72 | 37 | 4.0 | 11.0 | 0.00 | 0.00 | 0.00 | 82 | 1017.0 |
| 20260905161008 | 73 | 37 | 3.0 | 9.0 | 0.00 | 0.00 | 0.00 | 82 | 1016.9 |
| 20260905160007 | 73 | 22 | 2.0 | 7.0 | 0.00 | 0.00 | 0.00 | 83 | 1016.8 |
| 20260905155008 | 72 | 35 | 3.0 | 7.0 | 0.00 | 0.00 | 0.00 | 83 | 1016.6 |
| 20260905154007 | 72 | 12 | 3.0 | 8.0 | 0.00 | 0.00 | 0.00 | 83 | 1016.7 |
| 20260905153007 | 72 | 16 | 2.0 | 8.0 | 0.00 | 0.00 | 0.00 | 83 | 1016.7 |